This demonstration page uses our WeatherBlox Daily Observations layout. Learn more.

Left ArrowRight Arrow

36.17497, -115.13722

Hourly Observations for May 29, 2016

Temp ( °F °C ) Dew Point ( °F °C ) Humidity (%) Winds ( mph kmh ) Pressure ( in mb ) Visibility ( mi km ) Precip ( " mm )
12:53 am 00:53 Clear 76 24.4 28 -2.2 17 17 NNW 6 9 29.83 1010 10 16.0934 0 0
1:53 am 01:53 Clear 73 22.8 29 -1.7 19 19 Calm 29.83 1010 10 16.0934 0 0
2:53 am 02:53 Clear 70 21.1 31 -0.6 23 23 Calm 29.84 1011 10 16.0934 0 0
3:53 am 03:53 Clear 70 21.1 34 1.1 27 27 WNW 5 7 29.85 1011 10 16.0934 0 0
4:53 am 04:53 Clear 68 20 35 1.7 30 30 N 5 7 29.86 1011 10 16.0934 0 0
5:53 am 05:53 Sunny 67 19.4 35 1.7 31 31 NNW 3 6 29.88 1012 10 16.0934 0 0
6:53 am 06:53 Sunny 70 21.1 35 1.7 28 28 Calm 29.9 1013 10 16.0934 0 0
7:53 am 07:53 Sunny 75 23.9 35 1.7 23 23 NNW 3 6 29.92 1013 10 16.0934 0 0
8:53 am 08:53 Sunny 80 26.7 32 0 17 17 Calm 29.93 1013 10 16.0934 0 0
9:53 am 09:53 Sunny 82 27.8 27 -2.8 13 13 VRB 3 6 29.93 1013 10 16.0934 0 0
10:53 am 10:53 Sunny 84 28.9 29 -1.7 13 13 Calm 29.92 1013 10 16.0934 0 0
11:53 am 11:53 Sunny 87 30.6 29 -1.7 12 12 ESE 7 11 29.91 1013 10 16.0934 0 0
12:53 pm 12:53 Sunny 88 31.1 29 -1.7 12 12 VRB 3 6 29.89 1012 10 16.0934 0 0
1:53 pm 13:53 Sunny 89 31.7 29 -1.7 11 11 Calm 29.88 1012 10 16.0934 0 0
2:53 pm 14:53 Sunny 91 32.8 26 -3.3 9 9 ESE 8 13 29.85 1011 10 16.0934 0 0
3:53 pm 15:53 Sunny 91 32.8 26 -3.3 9 9 ESE 8 13 29.83 1010 10 16.0934 0 0
4:53 pm 16:53 Sunny 90 32.2 26 -3.3 10 10 Calm 29.82 1010 10 16.0934 0 0
5:53 pm 17:53 Sunny 90 32.2 24 -4.4 9 9 SSW 8 13 29.8 1009 10 16.0934 0 0
6:53 pm 18:53 Sunny 89 31.7 22 -5.6 8 8 S 3 6 29.8 1009 10 16.0934 0 0
7:53 pm 19:53 Clear 88 31.1 23 -5 9 9 SW 3 6 29.81 1010 10 16.0934 0 0
8:53 pm 20:53 Clear 87 30.6 24 -4.4 10 10 SSW 3 6 29.82 1010 10 16.0934 0 0
9:53 pm 21:53 Clear 83 28.3 20 -6.7 10 10 S 8 13 29.84 1011 10 16.0934 0 0
10:53 pm 22:53 Clear 81 27.2 20 -6.7 10 10 SSW 5 7 29.85 1011 10 16.0934 0 0
11:53 pm 23:53 Clear 78 25.6 20 -6.7 11 11 S 6 9 29.86 1011 10 16.0934 0 0

Powered by AerisWeather